Powrót do katalogu

COSMOS 2209

AktywnyMilitariaGEO
NORAD 22112·PAYLOAD·🇷🇺 Russia

Wystrzelony Sep 10, 1992 z Baikonur Cosmodrome

Loading…

TLE

ŚwieżeSource: Space-Track

Epoka: Sep 14, 2026, 05:40 UTC

1 22112U 92059A   26257.23631823 -.00000255  00000-0  00000-0 0  9996
2 22112  13.5253 341.9815 0011375 342.8056  35.7234  1.00172387124511

Śledź COSMOS 2209 w czasie rzeczywistym z AllMySat

Download on the App Store